FW2527 Weather Reports


Display with metric or nautical units.
time (UTC)temp
F
wind
direction
speed
MPH
gust
MPH
rain 1hr
in
rain 24hr
in
rain mn
in
humidity
%
barometer
mb
20260901150549 72 0.0 0.0 0.00 0.06 0.02 52 1017.5
20260901150009 72 0.0 0.0 0.00 0.06 0.02 52 1017.6
20260901145601 73 0.0 0.0 0.00 0.06 0.02 53 1017.6
20260901145050 73 0.0 0.0 0.00 0.06 0.02 54 1017.6
20260901144509 73 0.0 0.0 0.00 0.06 0.02 53 1017.6
20260901144101 73 0.0 0.0 0.00 0.06 0.02 52 1017.5
20260901143551 73 0.0 0.0 0.00 0.06 0.02 53 1017.6
20260901143102 73 0.0 0.0 0.00 0.06 0.02 54 1017.6
20260901142550 72 0.0 0.0 0.00 0.06 0.02 54 1017.6
20260901142038 72 0.0 0.0 0.00 0.06 0.02 56 1017.5
20260901141604 71 0.0 0.0 0.00 0.06 0.02 60 1017.5
20260901141049 70 0.0 0.0 0.00 0.06 0.02 57 1017.6
20260901140539 70 0.0 0.0 0.00 0.06 0.02 57 1017.6
20260901140105 71 0.0 0.0 0.00 0.08 0.02 56 1017.7
20260901135548 71 0.0 0.0 0.00 0.08 0.02 58 1017.6
20260901135039 71 0.0 0.0 0.00 0.08 0.02 58 1017.7
20260901134612 71 0.0 0.0 0.00 0.08 0.02 59 1017.7
20260901134048 70 0.0 0.0 0.00 0.08 0.02 60 1017.6
20260901133539 71 0.0 0.0 0.00 0.08 0.02 58 1017.6
20260901133101 71 0.0 0.0 0.00 0.08 0.02 58 1017.6
20260901132550 71 0.0 0.0 0.00 0.08 0.02 60 1017.6
20260901132045 72 0.0 0.0 0.00 0.08 0.02 58 1017.6
20260901131601 73 0.0 0.0 0.00 0.08 0.02 56 1017.4
20260901131048 73 0.0 0.0 0.00 0.08 0.02 54 1017.4
20260901130538 73 0.0 0.0 0.00 0.08 0.02 53 1017.4
20260901130057 72 0.0 0.0 0.00 0.10 0.02 57 1017.4
20260901125547 70 0.0 0.0 0.00 0.10 0.02 59 1017.4
20260901125038 71 0.0 0.0 0.00 0.10 0.02 58 1017.4
20260901124559 73 0.0 0.0 0.00 0.10 0.02 58 1017.4
20260901124050 73 0.0 0.0 0.00 0.10 0.02 56 1017.3
20260901123539 73 0.0 0.0 0.00 0.10 0.02 58 1017.4
20260901123100 72 0.0 0.0 0.00 0.10 0.02 56 1017.4
20260901122550 72 0.0 0.0 0.00 0.10 0.02 57 1017.5
20260901122039 72 0.0 0.0 0.00 0.10 0.02 61 1017.4
20260901121600 72 0.0 0.0 0.00 0.10 0.02 61 1017.5
20260901121050 72 0.0 0.0 0.00 0.10 0.02 61 1017.5
20260901120539 72 0.0 0.0 0.00 0.10 0.02 63 1017.5
20260901120008 71 0.0 0.0 0.00 0.10 0.02 61 1017.4
20260901115601 72 0.0 0.0 0.00 0.10 0.02 63 1017.5
20260901115050 72 0.0 0.0 0.00 0.10 0.02 64 1017.5
20260901114509 71 0.0 0.0 0.00 0.10 0.02 64 1017.4
20260901114100 71 0.0 0.0 0.00 0.10 0.02 68 1017.4
20260901113554 71 0.0 0.0 0.00 0.10 0.02 68 1017.3
20260901113008 69 0.0 0.0 0.00 0.10 0.02 71 1017.4
20260901112600 69 0.0 0.0 0.00 0.10 0.02 71 1017.4
20260901112051 69 0.0 0.0 0.00 0.10 0.02 71 1017.5
20260901111520 67 0.0 0.0 0.00 0.10 0.02 73 1017.4
20260901111009 67 0.0 0.0 0.00 0.10 0.02 73 1017.4
20260901110601 67 0.0 0.0 0.01 0.10 0.02 72 1017.5
20260901110020 67 0.0 0.0 0.02 0.10 0.02 70 1017.4
20260901105510 68 0.0 0.0 0.02 0.10 0.02 74 1017.5
20260901105104 68 0.0 0.0 0.02 0.10 0.02 76 1017.4
20260901104519 67 0.0 0.0 0.02 0.10 0.02 77 1017.4
20260901104012 67 0.0 0.0 0.02 0.10 0.02 79 1017.5
20260901103538 67 0.0 0.0 0.02 0.10 0.02 79 1017.4
20260901103100 68 0.0 0.0 0.02 0.10 0.02 79 1017.5
20260831162546 0 0.0 0.0 0.05 0.09 0.09 1009.9
20260831162035 0 0.0 0.0 0.05 0.09 0.09 1009.8
20260831161555 66 0.0 0.0 0.01 0.05 0.05 75 1009.8
20260831161048 66 0.0 0.0 0.00 0.04 0.04 74 1009.8
20260831160537 66 0.0 0.0 0.00 0.04 0.04 74 1009.7
20260831160055 66 0.0 0.0 0.00 0.04 0.04 72 1009.6
20260831155545 66 0.0 0.0 0.00 0.04 0.04 70 1009.7
20260831155035 66 0.0 0.0 0.00 0.04 0.04 71 1009.5
20260831154603 66 0.0 0.0 0.00 0.04 0.04 71 1009.6
20260831154045 67 0.0 0.0 0.00 0.04 0.04 72 1009.6
20260831153535 68 0.0 0.0 0.00 0.04 0.04 71 1009.4
20260831153101 68 0.0 0.0 0.00 0.04 0.04 73 1009.4
20260831152546 68 0.0 0.0 0.00 0.04 0.04 75 1009.3
20260831152036 67 0.0 0.0 0.00 0.04 0.04 77 1009.2
20260831151505 66 0.0 0.0 0.00 0.04 0.04 79 1009.2
20260831151057 65 0.0 0.0 0.00 0.04 0.04 79 1009.2